Theta_e
347 346 346 344 344 345 345 349 351 346 342 342 338 336 333 329 330 331 328 324 320 319 320 320 322 328 333 334 332 332 332 332 330 328 329 329 327 328 328 327 326 326
347 346 346 345 344 344 343 344 346 343 340 340 337 337 334 328 330 330 326 324 322 321 322 321 323 325 329 333 334 334 334 331 328 327 328 329 328 328 327 327 328 326
347 347 345 344 344 342 340 341 341 340 341 340 339 340 335 329 330 328 323 322 323 323 322 322 324 324 324 328 332 335 335 332 330 329 329 328 327 327 327 327 329 328
347 347 346 343 342 341 339 340 340 339 342 342 340 339 334 330 330 327 321 320 320 320 320 321 324 325 324 325 329 334 334 332 329 328 327 327 326 325 326 327 328 328
347 347 346 343 342 343 341 340 341 340 342 342 339 334 331 330 330 325 320 319 318 317 318 319 321 323 324 326 330 332 330 330 330 325 324 326 327 327 328 328 327 326
347 346 346 345 345 345 343 340 340 340 341 340 337 331 327 328 327 322 319 319 320 319 318 320 323 323 324 327 329 327 324 329 332 329 326 327 329 331 331 329 327 325
348 347 347 347 347 348 345 340 339 339 339 338 335 327 322 321 321 319 318 319 320 319 318 320 323 323 324 325 324 322 321 326 331 330 329 329 330 331 331 329 326 325
348 348 349 349 349 349 347 339 337 338 337 335 332 326 319 318 317 316 317 318 318 318 318 319 320 320 321 321 320 322 324 327 329 330 330 331 331 331 330 328 327 326
347 348 349 350 349 350 346 336 334 337 336 334 331 325 320 318 317 316 316 317 317 318 319 319 319 319 318 319 321 324 327 329 330 330 331 332 332 331 329 328 327 326
347 348 349 350 352 351 344 333 333 335 334 334 331 325 319 318 317 316 316 318 317 318 320 321 320 320 319 320 324 327 327 328 330 330 330 331 331 330 329 329 328 326
347 348 348 351 352 347 338 333 336 337 334 334 332 325 320 317 318 317 317 318 319 319 320 320 321 322 321 321 325 328 328 330 331 330 329 328 329 329 329 328 327 326
347 347 348 351 350 340 335 337 339 338 335 335 333 327 321 318 317 317 318 320 320 320 320 320 321 323 323 323 325 328 329 331 331 329 328 328 328 329 329 328 326 325
347 348 348 352 350 342 338 338 337 337 336 336 336 330 322 319 318 317 319 320 320 319 320 320 320 322 324 324 325 327 328 329 330 328 328 328 328 328 328 329 329 328
347 347 348 352 352 349 342 338 334 336 339 339 337 332 324 321 319 319 321 320 319 319 320 320 320 322 325 326 325 326 327 327 329 328 327 327 328 327 326 327 329 330
353 350 349 353 353 352 349 343 335 333 336 339 338 333 326 322 320 321 324 321 318 319 320 320 320 322 324 326 325 324 325 327 330 329 328 328 328 328 326 326 328 328
358 354 351 353 353 352 351 349 344 336 332 333 337 335 327 321 320 323 324 321 318 319 320 320 321 321 323 325 324 324 327 329 331 330 327 326 327 327 327 329 330 329
358 354 352 353 353 353 353 352 350 345 335 332 337 337 328 321 320 323 325 323 320 321 321 321 321 322 323 325 324 325 329 331 330 330 328 326 326 327 328 330 332 332
355 352 354 353 353 353 353 352 352 350 344 339 341 340 331 323 320 322 325 324 322 322 321 321 322 324 325 324 323 326 330 331 330 331 330 329 329 330 332 333 334 335
355 352 353 352 352 353 352 352 353 352 349 345 344 343 335 326 322 322 324 326 324 322 321 321 323 324 324 324 323 327 331 332 331 331 331 331 333 335 336 336 336 334
352 350 352 351 351 352 351 352 352 352 351 347 345 344 338 328 324 323 325 327 325 321 320 323 324 324 324 324 323 327 332 332 331 331 331 331 333 334 335 335 335 334
349 349 351 351 350 351 351 351 351 351 351 348 345 344 339 330 326 324 326 328 326 321 321 326 327 325 326 325 324 327 332 332 331 332 332 332 332 332 332 333 334 334
349 349 350 351 351 351 350 350 349 350 351 349 346 344 339 333 329 326 326 328 327 323 324 327 327 326 326 325 323 327 331 332 332 332 333 332 332 332 332 333 334 334
348 348 350 350 350 350 349 349 349 349 350 349 348 345 339 333 329 326 325 328 327 325 326 326 324 324 326 324 323 326 330 331 332 333 334 333 332 332 332 333 334 333
349 349 350 350 350 349 349 349 348 348 349 349 349 347 339 332 329 327 326 328 327 326 326 323 322 326 325 322 323 327 329 332 333 334 334 333 332 332 332 333 333 332
350 349 350 350 349 349 349 348 348 348 348 348 348 346 339 334 332 330 328 327 327 329 329 324 325 328 326 321 322 325 328 331 333 334 334 333 333 333 332 332 332 330
350 349 349 349 349 349 348 348 347 347 348 347 346 344 338 334 333 333 331 330 330 332 331 325 325 328 326 322 322 323 326 330 332 334 334 333 333 333 333 333 332 330
Wind_Speed
28 28 27 28 28 25 22 18 15 16 19 19 17 16 15 14 13 13 13 10 8 7 8 9 10 9 6 5 5 5 4 4 5 5 5 5 5 5 6 6 7 7
29 29 29 28 28 27 25 23 19 19 21 20 17 16 16 14 13 13 13 10 9 8 9 10 11 10 9 7 6 5 5 5 5 6 6 6 6 6 6 7 8 9
30 30 30 29 29 29 28 26 24 22 21 19 17 16 15 14 14 13 13 11 9 9 10 11 11 12 11 10 8 6 6 6 5 6 7 7 7 7 7 8 9 9
32 31 31 30 30 30 29 27 26 24 21 18 16 15 15 15 14 14 12 11 10 9 10 11 12 13 12 12 9 7 6 7 7 8 8 8 8 8 8 8 9 9
33 32 32 31 31 31 30 28 26 24 21 18 17 17 16 15 14 13 12 11 10 10 11 12 13 13 13 12 10 8 8 7 8 9 8 7 7 7 7 7 8 9
34 33 33 33 32 31 31 28 26 25 23 20 19 18 17 14 13 13 12 11 10 10 11 12 13 13 13 12 10 10 9 8 8 8 7 6 7 7 8 8 8 10
34 34 34 33 32 31 30 29 27 26 25 23 21 20 18 16 14 13 12 11 10 10 11 12 13 14 14 13 12 11 11 10 9 8 7 7 8 8 9 9 9 10
35 35 35 33 33 31 30 30 30 28 26 25 22 21 20 18 15 14 13 12 11 11 11 11 13 15 15 15 15 14 13 12 10 9 9 9 9 10 10 10 11 12
37 37 36 35 34 32 29 31 32 29 28 26 24 23 22 20 18 15 14 14 14 14 14 13 14 17 17 17 17 16 14 12 10 10 10 11 11 11 11 12 13 14
39 38 38 36 32 28 30 34 34 32 31 28 27 27 26 24 21 19 18 17 16 17 16 14 14 17 19 19 19 17 15 13 11 11 11 11 13 13 14 14 15 16
40 39 39 37 33 31 34 36 35 35 34 32 30 30 29 27 25 24 23 21 18 18 17 15 15 18 20 21 20 18 15 13 13 12 12 13 14 14 14 15 16 17
41 41 41 39 37 37 38 37 37 38 37 35 34 33 32 29 28 26 25 23 20 18 17 16 15 19 21 21 20 18 16 14 14 15 14 14 15 15 15 16 16 17
41 41 42 39 37 39 40 39 40 41 39 38 36 35 34 32 30 28 25 23 22 20 19 18 18 20 22 22 21 19 18 17 17 17 16 15 16 16 16 16 17 17
41 41 42 38 33 36 41 40 41 42 40 39 37 37 37 35 32 28 25 24 23 22 22 22 21 22 23 23 22 20 19 18 17 16 16 16 17 17 17 17 17 16
35 40 42 36 31 34 41 42 43 44 42 39 39 40 40 37 33 28 26 25 25 24 24 24 22 23 24 24 23 22 19 17 16 16 16 17 18 18 18 18 17 17
28 35 39 37 32 33 40 43 44 46 45 41 40 41 41 38 33 30 29 29 30 29 27 26 25 25 25 25 25 23 19 16 16 17 17 18 18 19 18 17 17 18
27 33 35 36 33 31 37 42 44 45 45 44 42 42 41 38 35 33 32 31 32 31 29 28 27 26 25 25 26 23 19 17 17 18 18 18 19 19 18 17 17 18
28 31 31 33 32 30 35 39 41 43 44 44 44 43 42 40 37 36 34 32 31 31 31 30 28 26 26 27 27 23 19 17 18 18 18 18 18 18 18 17 17 17
26 30 29 30 30 30 32 34 36 40 43 44 44 44 44 41 39 38 36 31 30 32 31 29 27 28 29 29 28 24 19 18 18 18 18 18 18 18 18 18 18 19
26 30 27 28 28 28 29 31 32 37 41 43 45 46 45 42 39 39 35 31 31 32 31 28 28 30 30 30 29 25 19 19 19 19 19 20 20 20 20 20 20 21
26 26 24 24 25 25 28 29 29 33 39 43 46 47 45 43 41 39 35 31 30 32 31 28 28 29 28 28 29 24 20 19 20 20 21 22 22 23 23 23 24 25
22 22 21 21 21 22 26 26 24 28 35 42 47 48 47 46 44 40 36 33 31 33 33 30 30 30 27 25 25 23 21 21 22 21 22 23 23 24 24 25 27 27
20 19 19 20 20 21 23 21 21 26 32 38 45 48 48 47 41 36 36 34 33 34 34 33 33 31 26 21 20 21 22 23 23 23 23 23 24 25 26 27 27 27
17 17 16 17 18 19 19 18 19 24 29 34 40 46 48 44 36 34 35 34 32 33 35 35 33 28 23 18 18 21 23 23 24 24 23 23 24 26 27 27 27 26
14 15 15 15 16 16 17 16 18 22 27 30 37 44 45 39 32 32 35 33 31 32 34 34 29 23 21 21 20 22 23 23 24 24 23 24 25 26 27 26 25 24
12 13 13 14 14 14 14 16 19 23 26 29 35 39 38 32 27 28 30 30 29 30 32 32 25 21 23 25 23 23 23 24 24 24 24 24 24 25 25 22 20 20
Wind_Direction
233 235 236 237 238 237 236 236 235 241 249 252 256 260 260 259 256 255 258 259 255 247 236 227 221 218 218 219 223 227 228 228 240 254 259 267 276 276 278 287 289 287
232 235 236 237 239 238 239 241 239 243 250 251 252 256 257 257 256 258 259 256 254 250 239 231 225 223 222 223 225 228 235 236 240 252 259 259 266 270 274 279 280 283
231 234 236 237 239 240 241 241 242 245 248 248 248 250 252 254 254 257 258 254 249 247 241 233 229 229 229 228 230 231 239 244 244 254 261 259 263 269 273 276 276 279
231 233 236 238 239 241 242 241 243 245 245 243 243 244 246 248 252 257 257 253 249 246 242 235 231 233 233 231 232 234 239 246 249 251 256 260 263 266 270 274 276 278
232 233 235 237 238 240 242 242 243 244 243 242 244 244 243 246 252 255 255 255 253 250 245 240 238 237 237 233 231 234 238 244 251 250 251 255 258 264 269 272 277 279
233 234 235 237 238 240 243 242 242 243 242 242 244 244 241 244 251 254 255 254 252 253 248 243 242 240 238 236 233 238 239 231 235 241 243 248 252 257 263 271 280 281
234 235 236 237 238 239 241 240 239 239 239 240 242 242 240 241 244 247 250 247 247 255 252 246 246 241 236 237 236 236 232 221 222 233 243 250 253 258 266 276 284 283
234 236 237 238 238 237 237 237 237 237 237 238 240 240 238 235 236 238 239 238 241 248 245 243 246 240 235 236 234 227 223 221 224 234 247 254 259 267 276 283 285 284
234 236 237 238 238 235 234 235 236 235 235 236 237 237 235 230 227 228 230 234 238 237 230 230 237 238 234 231 229 226 224 225 228 237 250 259 265 273 279 282 284 284
234 236 238 238 234 230 233 237 236 235 234 234 233 234 235 230 224 222 224 230 237 236 227 219 226 235 234 228 227 231 233 235 237 243 253 263 269 276 280 282 283 282
234 236 237 236 233 233 237 237 235 234 233 232 231 233 232 230 226 222 220 221 229 234 226 212 218 233 233 228 229 235 239 244 248 252 259 267 273 277 279 281 282 280
234 236 236 235 236 238 237 235 234 235 234 231 230 231 230 228 226 222 220 219 221 225 222 209 213 231 234 231 233 236 238 245 253 260 266 271 274 276 276 278 279 278
235 237 236 234 235 236 235 233 234 236 235 232 230 230 230 229 225 221 220 219 216 218 219 209 208 224 233 233 234 235 238 245 252 259 266 271 272 271 271 271 271 272
239 239 238 235 233 236 237 235 236 237 235 231 230 231 232 229 225 221 218 216 215 217 216 210 208 220 231 236 237 238 240 246 254 260 265 269 270 269 269 267 266 266
240 240 239 236 234 237 238 236 237 239 236 232 231 233 233 229 223 220 217 214 215 216 213 211 213 221 229 236 241 241 242 249 257 261 264 267 266 266 268 269 267 267
233 238 240 239 237 239 239 237 237 238 237 235 233 231 231 228 222 219 217 215 216 216 212 211 215 221 228 238 244 243 243 250 256 259 264 266 265 266 268 267 266 269
234 240 241 241 239 240 243 242 240 239 238 237 233 229 228 227 223 220 218 217 217 217 215 214 216 220 227 236 242 240 240 247 253 258 266 268 268 269 269 268 268 271
237 242 240 241 242 243 247 248 245 241 239 235 230 227 227 225 223 221 219 220 218 217 218 218 219 225 228 232 236 235 236 243 249 256 265 267 267 268 267 268 270 270
237 243 239 242 245 245 248 251 248 242 238 233 227 226 226 224 222 221 220 221 220 219 220 221 225 232 233 232 234 233 233 240 246 254 261 262 262 262 263 266 269 271
241 245 240 242 246 245 245 248 248 243 237 232 229 228 226 223 221 222 221 221 221 219 219 221 229 237 239 236 234 233 233 240 246 253 260 262 262 261 263 266 271 275
241 243 239 240 243 244 243 245 246 242 236 232 231 231 228 223 222 223 223 224 225 220 218 222 231 242 246 240 233 231 234 240 245 251 259 263 265 266 267 268 271 274
237 238 236 235 235 239 242 241 238 239 236 231 230 231 230 228 228 228 227 229 227 221 220 226 234 244 250 242 232 231 235 239 245 251 255 261 265 267 269 269 271 275
235 236 233 231 230 233 238 235 230 237 238 232 230 230 227 226 228 228 227 228 226 222 223 229 236 245 251 243 232 234 236 239 246 250 253 259 263 265 267 269 273 277
229 230 226 229 230 230 233 230 227 237 241 236 234 232 226 223 224 225 226 228 227 225 227 232 238 247 250 240 232 238 239 241 248 251 253 257 260 264 267 271 276 280
219 222 222 225 225 227 231 225 225 240 245 240 237 234 228 224 223 224 229 232 227 223 226 232 238 249 250 241 236 239 239 241 247 250 253 257 260 266 272 275 279 281
215 221 223 221 221 226 228 223 229 244 247 240 237 235 229 223 218 220 225 226 221 220 225 231 240 253 253 247 243 242 239 240 245 248 253 259 264 270 275 275 274 277